Location: Gazon
(48.1318°N, 1.2708°W)
Time: 22:44:43
(UTC+00:00)

SL-14 R/B - Pass Details

Date: 18 September 2020
Orbit: 519 x 554 km, 82.4° (Epoch: 24 October)

Event Time Altitude Azimuth Distance (km) Brightness Sun altitude
Rises 20:46:45 0° 350° (N) 2,672 7.5 -25.3°
Reaches altitude 10° 20:48:54 10° 351° (N) 1,783 6.5 -25.6°
Enters shadow 20:51:26 39° 353° (N) 807 4.4 -25.9°
